Regional Weather Roundup
Issued by NWS

Home | Current Version | Previous Version | Graphics & Text | Print | Product List | Glossary Off
Versions: 1 2 3 4 5 6 7 8 9 10 11 12 13 14 15 16 17 18 19 20 21 22 23 24 25 26 27 28 29 30 31 32 33 34 35 36 37 38 39 40 41 42 43 44 45 46 47 48 49 50

172
ASUS43 KDMX 290803
RWRIA

WEATHER ROUNDUP FOR IOWA
NATIONAL WEATHER SERVICE DES MOINES IA
300 AM CDT FRI JUL 29 2016

NOTE: "FAIR" INDICATES FEW OR NO CLOUDS BELOW 12,000 FEET WITH NO
SIGNIFICANT WEATHER AND/OR OBSTRUCTIONS TO VISIBILITY.

* - THESE STATIONS ARE NOT NWS STATIONS...THUS NOT UNDER NWS
QUALITY CONTROL.  THEY ALSO DO NOT REPORT WEATHER SUCH
AS PRECIPITATION OR FOG.

IAZ001>003-012>014-020>022-031>034-043>046-290900-
   NORTHWEST IOWA

CITY           SKY/WX    TMP DP  RH WIND       PRES   REMARKS
CARROLL *      PTCLDY    63  63 100 N5        30.02F
CHEROKEE *     PTCLDY    62  62 100 CALM      30.05F
DENISON *      CLEAR     63  63 100 NE6       30.01F
LE MARS *      PTCLDY    61  61 100 N5        30.06F
SHELDON *      PTCLDY    59  59 100 N5        30.05F
SIOUX CITY     CLOUDY    68  61  78 N7        30.04F
SPENCER        CLEAR     60  58  92 N3        30.06S
STORM LAKE *   CLEAR     63  61  94 N3        30.05F
$$

IAZ055>058-069>071-079>083-090>094-290900-
   SOUTHWEST IOWA

CITY           SKY/WX    TMP DP  RH WIND       PRES   REMARKS
ATLANTIC *     CLOUDY    66  64  94 CALM      30.01F
CLARINDA *       N/A     68  66  94 MISG      30.02F
COUNCIL BLFS * CLOUDY    66  64  94 N5        30.01F
CRESTON *      MOCLDY    66  63  88 N8        30.02S
HARLAN  *      CLEAR     64  64 100 CALM      30.05F
LAMONI         PTCLDY    64  63  96 N6        29.98F
RED OAK *      CLOUDY    68  64  88 NE6       30.00F
SHENANDOAH *   CLOUDY    68  68 100 CALM      30.00F
$$

IAZ047>049-059>061-072>074-084-290900-
   CENTRAL IOWA

CITY           SKY/WX    TMP DP  RH WIND       PRES   REMARKS
AMES           CLOUDY    65  64  97 N8        30.00S
ANKENY *         N/A    N/A N/A N/A MISG        N/A
BOONE *          N/A     63  61  94 NW8       30.00S
CHARITON *       N/A    N/A N/A N/A MISG        N/A
DES MOINES     CLOUDY    68  63  84 N5        29.98F
GRINNELL*      CLOUDY    64  62  94 NW5       29.98F
KNOXVILLE *    PTCLDY    66  63  88 N6        29.97S
MARSHALLTOWN   CLOUDY    65  64  97 NW6       29.98F
NEWTON *       MOCLDY    64  64 100 N7        29.97S
PELLA *        CLOUDY    64  62  95 CALM      29.98F
PERRY *          N/A     64  63  99 N6        30.01S
$$

IAZ004>006-015-016-023>025-035-036-290900-
   NORTH CENTRAL IOWA

CITY           SKY/WX    TMP DP  RH WIND       PRES   REMARKS
ALGONA *       MOCLDY    63  61  94 NW5       30.05R
ESTHERVILLE    PTCLDY    60  60 100 W7        30.05F
FORT DODGE *   CLEAR     63  61  94 N6        30.03F
MASON CITY     CLOUDY    64  61  90 N6        30.03S
FOREST CITY *  CLOUDY    63  61  94 NW7       30.03R
IOWA FALLS *   CLOUDY    65  62  90 N8        30.01S
$$

IAZ007>011-017>019-026>030-037>042-050>054-066-290900-
   NORTHEAST IOWA

CITY           SKY/WX    TMP DP  RH WIND       PRES   REMARKS
CEDAR RAPIDS   CLOUDY    66  66 100 NW8       29.94F
CHARLES CITY * DRIZZLE   64  64 100 N6        30.00S
CLINTON *      CLOUDY    70  68  93 NE7       29.93S
DECORAH *      CLOUDY    63  63 100 NE6       29.98S
DUBUQUE        CLOUDY    68  66  93 NE5       29.95F
MONTICELLO *   CLOUDY    68  66  94 NW5       29.94S
OELWEIN *      CLOUDY    66  64  94 N7        29.97F
WATERLOO       CLOUDY    65  63  93 NW6       29.96F
$$

IAZ064-065-067-068-078-290900-
   EAST CENTRAL IOWA

CITY           SKY/WX    TMP DP  RH WIND       PRES   REMARKS
DAVENPORT      CLOUDY    67  66  97 W5        29.93R
IOWA CITY      CLOUDY    69  65  86 NW5       29.95S
MT. PLEASANT * CLEAR     68  68 100 NW5       29.95S
MUSCATINE *    PTCLDY    66  64  94 NW7       29.94S
QUAD CITIES    CLOUDY    70  67  90 W5        29.91S
$$

IAZ062-063-075>077-085>089-095>099-290900-
   SOUTHEAST IOWA

CITY           SKY/WX    TMP DP  RH WIND       PRES   REMARKS
BURLINGTON     PTCLDY    66  66 100 NW6       29.93F
FAIRFIELD *    CLEAR     64  63  94 NW6       29.95F
KEOKUK *       PTCLDY    68  66  94 CALM      29.93F
CENTERVILLE *    N/A     63  63 100 CALM      29.98F
OTTUMWA        PTCLDY    64  62  93 NW7       29.96F
WASHINGTON *   PTCLDY    64  64 100 NW5       29.96S
$$

ABBREVIATIONS USED IN REMARKS
   TC - TEMPERATURES IN CELSIUS
  WCI - WIND CHILL INDEX
   HX - HEAT INDEX
  VSB - VISIBILITY
$$





USA.gov is the U.S. government's official web portal to all federal, state and local government web resources and services.